Regional Weather Roundup
Issued by NWS Columbia, SC

Home | Current Version | Previous Version | Text Only | Print | Product List | Glossary On
Versions: 1 2 3 4 5 6 7 8 9 10 11 12 13 14 15 16 17 18 19 20 21 22 23 24 25 26 27
000
ASUS42 KCAE 251710
RWRCAE
REGIONAL WEATHER ROUNDUP
NATIONAL WEATHER SERVICE COLUMBIA SC
100 PM EDT SUN JUN 25 2017

NOTE: "FAIR" INDICATES FEW OR NO CLOUDS BELOW 12,000 FEET WITH NO
SIGNIFICANT WEATHER AND/OR OBSTRUCTIONS TO VISIBILITY.

NOT ALL STATIONS ARE QUALITY CONTROLLED BY THE NATIONAL
WEATHER SERVICE. USE DATA WITH CAUTION...ESPECIALLY
DEWPOINT OBSERVATIONS.

SCZ001>056-GAZ040-063>065-077-251800-
...UPSTATE SOUTH CAROLINA...

CITY           SKY/WX    TMP DP  RH WIND       PRES   REMARKS
ANDERSON       MOSUNNY   82  64  54 E7        30.13S
LIBERTY        CLOUDY    80  66  61 CALM      30.14S
SPARTANBURG    CLOUDY    79  61  53 NE3       30.13F
CLEMSON        CLOUDY    80  67  64 CALM      30.15S
GREENVILLE     MOSUNNY   81  63  54 E3        30.15F
GREENWOOD      CLOUDY    82  66  58 N10       30.13S
GREER          CLOUDY    78  65  63 E6        30.14S
ROCK HILL      CLOUDY    80  62  54 NE8       30.14S
CHESTER        CLOUDY    81  61  50 N10       30.14S
LAURENS        CLOUDY    81  64  57 NE5       30.13F


...CENTRAL SOUTH CAROLINA...

CITY           SKY/WX    TMP DP  RH WIND       PRES   REMARKS
COLUMBIA APT   PTSUNNY   86  71  60 VRB6      30.07F
COLUMBIA OWENS CLOUDY    86  71  60 CALM      30.08F
MCENTIRE ANGB  MOSUNNY   85  74  68 S3        30.08S
ORANGEBURG     CLOUDY    85  71  63 W7        30.08S
SUMTER SHAW    CLOUDY    84  72  65 NW5       30.06S
NEWBERRY       CLOUDY    81  70  69 N9        30.14S
AIKEN          CLOUDY    82  72  69 NW5       30.12F
BARNWELL       PTSUNNY   86  77  74 W6        30.08F HX  97
MANNING        FAIR      84  77  79 SE8       30.07F
CAMDEN         PTSUNNY   86  72  62 CALM      30.09S
LANCASTER      MOSUNNY   82  66  57 NW7       30.12R
WINNSBORO      PTSUNNY   86  68  54 N7        30.10S


...EASTERN AND COASTAL SOUTH CAROLINA...

CITY           SKY/WX    TMP DP  RH WIND       PRES   REMARKS
MYRTLE BEACH   PTSUNNY   84  72  65 MISG      30.08S
N MYRTLE BCH   CLOUDY    83  74  74 SW5       30.06S
CONWAY         FAIR      82  73  74 S6        30.07S
MARION         PTSUNNY   82  72  69 CALM      30.07F
HARTSVILLE       N/A    N/A N/A N/A MISG        N/A
FLORENCE       PTSUNNY   83  73  72 SW8       30.08S
DARLINGTON     CLOUDY    84  74  71 CALM      30.08F
CHARLESTON APT PTSUNNY   88  73  61 SW7       30.07F HX  95
MOUNT PLEASANT FAIR      90  73  58 CALM      30.07F HX  98
WALTERBORO     CLOUDY    86  73  66 CALM      30.08F
BEAUFORT       CLOUDY    88  76  67 CALM      30.07F HX  99


...EASTERN GEORGIA...

CITY           SKY/WX    TMP DP  RH WIND       PRES   REMARKS
AUGUSTA BUSH F PTSUNNY   87  74  64 SE3       30.07F HX  95
AUGUSTA DANIEL PTSUNNY   87  69  54 VRB3      30.09F
THOMSON        PTSUNNY   83  72  68 NE6       30.16S
WASHINGTON     FAIR      81  73  78 NW3       30.13S
CLAXTON        TSTM      75  73  95 S10       30.08R
SYLVANIA       CLOUDY    83  79  88 CALM      30.09S
STATESBORO     CLOUDY    84  78  82 NW5       30.06F
SAVANNAH       PTSUNNY   92  72  51 S9        30.06F HX  99


...SOUTHERN NORTH CAROLINA...

CITY           SKY/WX    TMP DP  RH WIND       PRES   REMARKS
CHARLOTTE      CLOUDY    79  63  57 N7        30.13F
MONROE         CLOUDY    81  62  52 N12       30.12S
WADESBORO      CLOUDY    83  68  59 NW9       30.10S
ROCKINGHAM     SUNNY     83  66  55 N7        30.09S
ASHEVILLE      CLOUDY    70  54  56 N12G23    30.22R

$$




USA.gov is the U.S. government's official web portal to all federal, state and local government web resources and services.